Flag for Canada Weather past 2 weeks in Surrey, British Columbia, Canada

Now
60 °F

Cool.


Feels Like: 60 °F
Forecast: 56 / 71 °F
Wind: 1 mph from East

Location: P. Meadows Coastal Station

Current Time: May 22, 2015 at 1:58:37 AM

Latest Report: May 22, 2015 at 1:00 AM


Visibility: N/A

Pressure: 29.85 "Hg

Humidity: 88%

Dew point: 56 °F

Location of SurreyLocation

Historic Weather in Surrey — Graph

°F

Surrey temperature yesterday

Maximum temperature yesterday: 79 °F (at 4:00 PM)
Minimum temperature yesterday: 56 °F (at 4:00 AM)
Average temperature yesterday: 67 °F

Past Weeks' High & Low Weather Summary

 TemperatureHumidityPressure
High79 °F (May 21, 4:00 PM)97% (May 7, 6:00 AM)30.16 "Hg (May 7, 6:00 AM)
Low40 °F (May 7, 5:00 AM)22% (May 8, 2:00 PM)29.77 "Hg (May 21, 5:00 PM)
Average61 °F69%29.96 "Hg
* Reported Midnight between May 6 and May 7 — Midnight between May 21 and May 22, Surrey, Weather by CustomWeather, © 2015

Note: Actual official high and low records may vary slightly from our data, if they occured in-between our weather recording intervals... More about our weather records

Advertising

Surrey weather history for previous 24 hours

 ConditionsComfort  
Time TempWeatherWind HumidityBarometerVisibility
12:00 AM
Fri, May 22
60 °FCool.2 mph84%29.85 "HgN/A
11:00 PM
Thu, May 21
64 °FMild.2 mph75%29.84 "HgN/A
10:00 PM65 °FMild.1 mph72%29.83 "HgN/A
9:00 PM68 °FMild.2 mph65%29.83 "HgN/A
8:00 PM70 °FMild.2 mph58%29.81 "HgN/A
7:00 PM74 °FMild.5 mph50%29.80 "HgN/A
6:00 PM76 °FMild.6 mph51%29.78 "HgN/A
5:00 PM79 °FWarm.3 mph46%29.77 "HgN/A
4:00 PM79 °FWarm.3 mph42%29.78 "HgN/A
3:00 PM78 °FWarm.7 mph49%29.81 "HgN/A
2:00 PM77 °FWarm.5 mph50%29.82 "HgN/A
1:00 PM76 °FMild.5 mph49%29.84 "HgN/A
12:00 PM74 °FMild.3 mph48%29.85 "HgN/A
11:00 AM71 °FMild.2 mph65%29.85 "HgN/A
10:00 AM70 °FMild.2 mph63%29.86 "HgN/A
9:00 AM66 °FMild.2 mph70%29.87 "HgN/A
8:00 AM63 °FMild.2 mph73%29.87 "HgN/A
7:00 AM62 °FCool.No wind76%29.88 "HgN/A
6:00 AM57 °FCool.No wind91%29.87 "HgN/A
5:00 AM56 °FCool.1 mph92%29.87 "HgN/A
4:00 AM56 °FCool.No wind89%29.88 "HgN/A
3:00 AM58 °FCool.No wind86%29.87 "HgN/A
2:00 AM60 °FCool.No wind83%29.86 "HgN/A
1:00 AM61 °FCool.No wind80%29.86 "HgN/A
Weather by CustomWeather, © 2015

See weather overviewHow to use our weather pages